Weather History for Omaha, NE

Change the Weather History Date:

Saturday, November 27, 2010

  Actual Average Record
Temperature  
Mean Temperature 36 °F 33 °F  
Max Temperature 50 °F 42 °F 67 °F (1998)
Min Temperature 21 °F 23 °F -14 °F (1887)
Degree Days  
Heating Degree Days 29 32  
Month to date heating degree days 659 685  
Since 1 July heating degree days 956 1170  
Cooling Degree Days 0 0  
Month to date cooling degree days 0 0  
Year to date cooling degree days 1388 1112  
Moisture  
Dew Point 23 °F    
Average Humidity 66    
Maximum Humidity 92    
Minimum Humidity 39    
Precipitation  
Precipitation 0.00 in 0.04 in 2.16 in (1983)
Month to date precipitation 2.11 1.50  
Year to date precipitation 34.18 29.44  
Snow  
Snow 0.00 in 0.10 in - ()
Month to date snowfall 2.8 2.0  
Since 1 July snowfall 2.8 2.3  
Snow Depth 0.00 in    
Sea Level Pressure  
Sea Level Pressure 30.08 in    
Wind  
Wind Speed 7 mph (SSE)    
Max Wind Speed 17 mph    
Max Gust Speed 20 mph    
Visibility 10 miles    
Events      
T = Trace of Precipitation, MM = Missing Value Source: NWS Daily Summary

Daily Weather History Graph

Daily Weather History Graph

Search for Another Location

Airport:

Trip Planner

Search our weather history database for the weather conditions in past years. The results will help you decide how hot, cold, wet, or windy it might be!

Date:

Astronomy

Nov. 27, 2010 Rise Set
Actual Time 7:25 AM CST 4:56 PM CST
Civil Twilight 6:55 AM CST 5:27 PM CST
Nautical Twilight 6:21 AM CST 6:01 PM CST
Astronomical Twilight 5:47 AM CST 6:34 PM CST
Moon 11:19 PM CST (11/27) 12:03 PM CST (11/27)
Length of Visible Light 10h 31m
Length of Day
9h 30m
Waning Gibbous, 62% of the Moon is Illuminated
Nov 27
Waning Gibbous
Nov 28
Last Quarter
Dec 5
New
Dec 13
First Quarter
Dec 21
Full

Hourly Weather History & Observations

Time (CST) Temp. Windchill Dew Point Humidity Pressure Visibility Wind Dir Wind Speed Gust Speed Precip Events Conditions
12:52 AM 25.0 °F - 19.9 °F 81% 30.12 in 10.0 mi Calm Calm - N/A   Clear
1:52 AM 26.1 °F - 21.0 °F 81% 30.12 in 10.0 mi Calm Calm - N/A   Clear
2:52 AM 21.9 °F - 19.0 °F 89% 30.14 in 10.0 mi Calm Calm - N/A   Clear
3:52 AM 21.9 °F - 19.0 °F 89% 30.14 in 10.0 mi Calm Calm - N/A   Clear
4:52 AM 21.9 °F 17.2 °F 18.0 °F 85% 30.14 in 10.0 mi ESE 3.5 mph - N/A   Clear
5:52 AM 21.2 °F - 19.4 °F 93% 30.12 in 10.0 mi Calm Calm - N/A   Clear
6:52 AM 21.9 °F 17.2 °F 19.0 °F 89% 30.17 in 10.0 mi SSE 3.5 mph - N/A   Clear
7:52 AM 23.0 °F - 19.9 °F 88% 30.18 in 10.0 mi Calm Calm - N/A   Partly Cloudy
8:52 AM 26.1 °F 21.9 °F 21.9 °F 84% 30.18 in 10.0 mi SE 3.5 mph - N/A   Partly Cloudy
9:52 AM 30.9 °F 26.2 °F 24.1 °F 76% 30.17 in 10.0 mi SE 4.6 mph - N/A   Partly Cloudy
10:52 AM 37.0 °F 31.6 °F 23.0 °F 57% 30.15 in 10.0 mi South 6.9 mph - N/A   Scattered Clouds
11:52 AM 42.1 °F 36.6 °F 24.1 °F 49% 30.12 in 10.0 mi SSE 9.2 mph - N/A   Scattered Clouds
12:52 PM 46.0 °F 40.2 °F 24.1 °F 42% 30.09 in 10.0 mi SSE 12.7 mph - N/A   Scattered Clouds
1:52 PM 48.0 °F - 24.1 °F 39% 30.06 in 10.0 mi SSE 11.5 mph - N/A   Scattered Clouds
2:52 PM 48.9 °F - 25.0 °F 39% 30.05 in 10.0 mi SSE 12.7 mph - N/A   Mostly Cloudy
3:52 PM 48.9 °F - 25.0 °F 39% 30.03 in 10.0 mi SSE 11.5 mph - N/A   Mostly Cloudy
4:52 PM 42.1 °F 36.6 °F 24.1 °F 49% 30.02 in 10.0 mi SSE 9.2 mph - N/A   Mostly Cloudy
5:52 PM 39.9 °F 32.9 °F 25.0 °F 55% 30.01 in 10.0 mi SE 11.5 mph - N/A   Mostly Cloudy
6:52 PM 39.9 °F 32.9 °F 25.0 °F 55% 30.00 in 10.0 mi SSE 11.5 mph - N/A   Mostly Cloudy
7:52 PM 41.0 °F 34.7 °F 24.1 °F 51% 29.99 in 10.0 mi SSE 10.4 mph - N/A   Mostly Cloudy
8:52 PM 39.9 °F 33.4 °F 24.1 °F 53% 29.98 in 10.0 mi SSE 10.4 mph - N/A   Mostly Cloudy
9:52 PM 37.9 °F 30.9 °F 24.1 °F 57% 29.96 in 10.0 mi South 10.4 mph - N/A   Mostly Cloudy
10:52 PM 37.9 °F 30.9 °F 25.0 °F 60% 29.95 in 10.0 mi South 10.4 mph - N/A   Mostly Cloudy
11:52 PM 37.9 °F 30.5 °F 25.0 °F 60% 29.94 in 10.0 mi South 11.5 mph - N/A   Mostly Cloudy